• In Russia
  • List of Countries
  • For 7 days
  • Water Temperature
  • Satellite Maps
  • Weather Map
  • Weather Widgets
  • user-avatar
    Login

    Hourly Weather Punta Cana

    Today, 25 February, Sunday

    Time Temperature Precipitation Wind Pressure Humidity
    00:00 +23°C° 0.1 mm 6 mps 765 mmHg 80%
    01:00 +23°C° 0.1 mm 6 mps 765 mmHg 82%
    02:00 +23°C° 0.1 mm 6 mps 764 mmHg 82%
    03:00 +23°C° 0.1 mm 6 mps 764 mmHg 82%
    04:00 +23°C° 0.1 mm 6 mps 764 mmHg 82%
    05:00 +23°C° 0.2 mm 6 mps 764 mmHg 83%
    06:00 +23°C° 0.2 mm 7 mps 764 mmHg 84%
    07:00 +23°C° 0.2 mm 7 mps 765 mmHg 85%
    08:00 +26°C° 0.5 mm 7 mps 765 mmHg 78%
    09:00 +27°C° 0.5 mm 7 mps 765 mmHg 71%
    10:00 +29°C° 0.5 mm 7 mps 765 mmHg 64%
    11:00 +29°C° 0.3 mm 6 mps 765 mmHg 61%
    12:00 +30°C° 0.3 mm 6 mps 765 mmHg 59%
    13:00 +30°C° 0.3 mm 6 mps 764 mmHg 56%
    14:00 +29°C° 0.3 mm 6 mps 764 mmHg 59%
    15:00 +29°C° 0.3 mm 6 mps 764 mmHg 62%
    16:00 +28°C° 0.3 mm 6 mps 764 mmHg 64%
    17:00 +27°C° 0.1 mm 6 mps 764 mmHg 70%
    18:00 +26°C° 0.1 mm 6 mps 764 mmHg 76%
    19:00 +24°C° 0.1 mm 6 mps 764 mmHg 81%
    20:00 +24°C° 0 mm 6 mps 765 mmHg 82%
    21:00 +24°C° 0 mm 6 mps 765 mmHg 83%
    22:00 +23°C° 0 mm 6 mps 765 mmHg 84%
    23:00 +23°C° 0.1 mm 6 mps 765 mmHg 85%

    Tomorrow, 26 February, Monday

    Time Temperature Precipitation Wind Pressure Humidity
    00:00 +23°C° 0.1 mm 6 mps 764 mmHg 85%
    01:00 +23°C° 0.1 mm 6 mps 764 mmHg 86%
    02:00 +23°C° 0.1 mm 6 mps 764 mmHg 86%
    03:00 +23°C° 0.1 mm 6 mps 764 mmHg 86%
    04:00 +23°C° 0.1 mm 6 mps 764 mmHg 86%
    05:00 +23°C° 0 mm 6 mps 764 mmHg 84%
    06:00 +24°C° 0 mm 6 mps 764 mmHg 83%
    07:00 +24°C° 0 mm 6 mps 765 mmHg 81%
    08:00 +26°C° 0 mm 6 mps 765 mmHg 73%
    09:00 +28°C° 0 mm 6 mps 766 mmHg 65%
    10:00 +29°C° 0 mm 6 mps 766 mmHg 57%
    11:00 +30°C° 0 mm 6 mps 765 mmHg 55%
    12:00 +30°C° 0 mm 6 mps 765 mmHg 53%
    13:00 +30°C° 0 mm 6 mps 764 mmHg 51%
    14:00 +30°C° 0 mm 5 mps 764 mmHg 55%
    15:00 +29°C° 0 mm 5 mps 763 mmHg 59%
    16:00 +28°C° 0 mm 5 mps 763 mmHg 62%
    17:00 +27°C° 0 mm 5 mps 763 mmHg 68%
    18:00 +26°C° 0 mm 5 mps 763 mmHg 74%
    19:00 +23°C° 0 mm 5 mps 764 mmHg 80%
    20:00 +23°C° 0 mm 5 mps 764 mmHg 81%
    21:00 +23°C° 0 mm 5 mps 764 mmHg 81%
    22:00 +23°C° 0 mm 5 mps 764 mmHg 82%
    23:00 +23°C° 0.1 mm 5 mps 764 mmHg 83%

    Day after tomorrow, 27 February, Tuesday

    Time Temperature Precipitation Wind Pressure Humidity
    00:00 +23°C° 0.1 mm 5 mps 764 mmHg 83%
    01:00 +23°C° 0.1 mm 5 mps 763 mmHg 84%
    02:00 +23°C° 0.1 mm 5 mps 763 mmHg 84%
    03:00 +23°C° 0.1 mm 5 mps 763 mmHg 85%
    04:00 +23°C° 0.1 mm 4 mps 763 mmHg 85%
    05:00 +23°C° 0 mm 4 mps 763 mmHg 83%
    06:00 +25°C° 0 mm 4 mps 764 mmHg 81%
    07:00 +25°C° 0 mm 4 mps 764 mmHg 79%
    08:00 +26°C° 0.1 mm 5 mps 764 mmHg 73%
    09:00 +28°C° 0.1 mm 5 mps 764 mmHg 67%
    10:00 +29°C° 0.1 mm 5 mps 764 mmHg 61%
    11:00 +29°C° 0 mm 5 mps 764 mmHg 58%
    12:00 +30°C° 0 mm 4 mps 763 mmHg 55%
    13:00 +30°C° 0 mm 4 mps 763 mmHg 53%
    14:00 +30°C° 0 mm 5 mps 762 mmHg 56%
    15:00 +29°C° 0 mm 5 mps 762 mmHg 60%
    16:00 +28°C° 0 mm 5 mps 761 mmHg 63%
    17:00 +27°C° 0 mm 5 mps 762 mmHg 69%
    18:00 +26°C° 0 mm 6 mps 762 mmHg 74%
    19:00 +24°C° 0 mm 6 mps 762 mmHg 79%
    20:00 +25°C° 0 mm 5 mps 763 mmHg 80%
    21:00 +25°C° 0 mm 5 mps 763 mmHg 80%
    22:00 +23°C° 0 mm 5 mps 763 mmHg 80%
    23:00 +23°C° 0 mm 5 mps 763 mmHg 81%

    28 February, Wednesday

    Time Temperature Precipitation Wind Pressure Humidity
    00:00 +23°C° 0 mm 5 mps 762 mmHg 82%
    01:00 +23°C° 0 mm 4 mps 762 mmHg 83%
    02:00 +23°C° 0.1 mm 4 mps 762 mmHg 83%
    03:00 +23°C° 0.1 mm 5 mps 762 mmHg 84%
    04:00 +23°C° 0.1 mm 5 mps 761 mmHg 85%
    05:00 +23°C° 0.3 mm 5 mps 762 mmHg 85%
    06:00 +23°C° 0.3 mm 6 mps 762 mmHg 85%
    07:00 +24°C° 0.3 mm 6 mps 763 mmHg 85%
    08:00 +26°C° 0.3 mm 6 mps 763 mmHg 80%
    09:00 +27°C° 0.3 mm 7 mps 763 mmHg 75%
    10:00 +28°C° 0.3 mm 7 mps 764 mmHg 70%
    11:00 +28°C° 0.3 mm 7 mps 763 mmHg 70%
    12:00 +28°C° 0.3 mm 7 mps 763 mmHg 69%
    13:00 +29°C° 0.3 mm 7 mps 762 mmHg 68%
    14:00 +28°C° 0.1 mm 7 mps 762 mmHg 68%
    15:00 +28°C° 0.1 mm 7 mps 761 mmHg 67%
    16:00 +28°C° 0.1 mm 7 mps 761 mmHg 66%
    17:00 +27°C° 0 mm 7 mps 762 mmHg 69%
    18:00 +26°C° 0 mm 7 mps 762 mmHg 73%
    19:00 +23°C° 0 mm 6 mps 763 mmHg 76%
    20:00 +23°C° 0 mm 6 mps 763 mmHg 77%
    21:00 +23°C° 0 mm 6 mps 763 mmHg 78%
    22:00 +23°C° 0 mm 6 mps 764 mmHg 78%
    23:00 +23°C° 0 mm 6 mps 763 mmHg 79%

    1 March, Thursday

    Time Temperature Precipitation Wind Pressure Humidity
    00:00 +23°C° 0 mm 6 mps 763 mmHg 80%
    01:00 +22°C° 0 mm 6 mps 763 mmHg 80%
    02:00 +22°C° 0 mm 6 mps 763 mmHg 81%
    03:00 +22°C° 0 mm 5 mps 762 mmHg 81%
    04:00 +22°C° 0 mm 5 mps 762 mmHg 81%
    05:00 +23°C° 0 mm 5 mps 763 mmHg 79%
    06:00 +25°C° 0 mm 5 mps 763 mmHg 78%
    07:00 +25°C° 0 mm 5 mps 764 mmHg 76%
    08:00 +26°C° 0 mm 5 mps 764 mmHg 70%
    09:00 +28°C° 0 mm 6 mps 764 mmHg 64%
    10:00 +29°C° 0 mm 6 mps 764 mmHg 58%
    11:00 +30°C° 0 mm 6 mps 764 mmHg 56%
    12:00 +30°C° 0 mm 5 mps 763 mmHg 54%
    13:00 +30°C° 0 mm 5 mps 763 mmHg 53%
    14:00 +30°C° 0 mm 5 mps 763 mmHg 55%
    15:00 +29°C° 0 mm 5 mps 762 mmHg 57%
    16:00 +28°C° 0 mm 5 mps 762 mmHg 59%
    17:00 +27°C° 0 mm 5 mps 763 mmHg 65%
    18:00 +26°C° 0 mm 5 mps 763 mmHg 70%
    19:00 +23°C° 0 mm 5 mps 763 mmHg 76%
    20:00 +23°C° 0 mm 5 mps 763 mmHg 77%
    21:00 +23°C° 0 mm 5 mps 764 mmHg 79%
    22:00 +23°C° 0 mm 5 mps 764 mmHg 80%
    23:00 +23°C° 0 mm 5 mps 763 mmHg 81%

    2 March, Friday

    Time Temperature Precipitation Wind Pressure Humidity
    00:00 +23°C° 0 mm 4 mps 763 mmHg 82%
    01:00 +23°C° 0 mm 4 mps 763 mmHg 83%
    02:00 +23°C° 0 mm 4 mps 763 mmHg 83%
    03:00 +23°C° 0 mm 4 mps 763 mmHg 84%
    04:00 +23°C° 0 mm 4 mps 763 mmHg 84%
    05:00 +24°C° 0 mm 3 mps 763 mmHg 81%
    06:00 +25°C° 0 mm 3 mps 763 mmHg 78%
    07:00 +25°C° 0 mm 3 mps 763 mmHg 76%
    08:00 +27°C° 0 mm 3 mps 763 mmHg 69%
    09:00 +28°C° 0 mm 3 mps 763 mmHg 62%
    10:00 +30°C° 0 mm 3 mps 764 mmHg 55%
    11:00 +30°C° 0 mm 3 mps 763 mmHg 53%
    12:00 +31°C° 0 mm 3 mps 762 mmHg 50%
    13:00 +31°C° 0 mm 3 mps 762 mmHg 48%
    14:00 +30°C° 0 mm 3 mps 761 mmHg 50%
    15:00 +30°C° 0 mm 3 mps 761 mmHg 51%
    16:00 +29°C° 0 mm 3 mps 761 mmHg 53%
    17:00 +28°C° 0 mm 3 mps 761 mmHg 60%
    18:00 +26°C° 0 mm 2 mps 761 mmHg 66%
    19:00 +24°C° 0 mm 2 mps 761 mmHg 73%
    20:00 +24°C° 0 mm 2 mps 761 mmHg 75%
    21:00 +24°C° 0 mm 2 mps 761 mmHg 78%
    22:00 +23°C° 0 mm 2 mps 761 mmHg 80%
    23:00 +23°C° 0 mm 2 mps 761 mmHg 82%
    Show more